Hourly Data Report for October 02, 2002

SHERBROOKE A
QUEBEC

45°26'00.000" N
71°41'00.000" W
241.40 m
7028124
71610
YSC

Download Data

Hourly Data (October 2002)
Hourly Data Report for October 2, 2002
TIME
LST
Temp Definition
°C
Dew Point Definition
°C
Rel Hum Definition
%
Precip. Amount Definition
mm

Wind Dir Definition
10's deg

Wind Spd Definition
km/h
Visibility Definition
km
Stn Press Definition
kPa
Hmdx Definition


Wind Chill Definition


Weather Definition


00:00 19.1 16.1 83   21 7 8.0 98.37      
01:00 19.4 16.1 81   20 6 9.7 98.36      
02:00 18.1 15.6 85   20 7 9.7 98.30      
03:00 18.2 15.6 85   21 7 9.7 98.24      
04:00 17.8 15.5 86   21 6 9.7 98.23      
05:00 18.3 15.8 85   20 7 8.0 98.23      
06:00 18.1 16.0 88   21 7 8.0 98.25      
07:00 18.8 16.7 88   23 11 16.1 98.30     Mostly Cloudy
08:00 19.8 17.4 86   22 7 16.1 98.27     Mostly Cloudy
09:00 20.7 18.1 85   26 9 19.3 98.25 27   Mostly Cloudy
10:00 20.9 18.0 83   25 11 16.1 98.26 27   Cloudy
11:00 20.7 18.3 86   25 15 8.0 98.23 27   Drizzle, Fog
12:00 21.5 18.0 80   25 15 16.1 98.20 28   Cloudy
13:00 22.6 17.6 73   24 19 16.1 98.14 28   Mostly Cloudy
14:00 23.1 18.0 73   25 13 19.3 98.12 29   Mostly Cloudy
15:00 22.6 16.8 70   25 19 19.3 98.11 28   Mainly Clear
16:00 22.5 16.9 71   26 13 19.3 98.13 28   Mostly Cloudy
17:00 20.6 16.4 77   25 11 12.9 98.11 25    
18:00 19.4 16.4 83   22 7 11.3 98.11      
19:00 19.3 16.7 85   22 9 9.7 98.11      
20:00 19.5 16.9 85   24 9 9.7 98.14      
21:00 17.6 14.4 82   34 13 11.3 98.17      
22:00 15.5 11.7 78   32 6 15.0 98.22     Rain
23:00 13.5 11.5 88   30 7 15.0 98.27     Rain

Notes on Data Quality.

Legend

  • E = Estimated
  • M = Missing
  • NA = Not Available*
  • [empty] = Indicates an unobserved value
Date modified: